GW5223 Weather Reports


time (UTC)temp
F
wind
direction
speed
knots
gust
knots
rain 1hr
in
rain 24hr
in
rain mn
in
humidity
%
barometer
mb
20260510204803 75 313 1.7 5.2 0.00 0.12 0.00 52 1012.1
20260510204304 75 346 1.7 7.0 0.00 0.12 0.00 52 1012.1
20260510203303 76 306 1.7 4.3 0.00 0.12 0.00 51 1011.9
20260510202804 77 326 1.7 5.2 0.00 0.12 0.00 52 1011.9
20260510202306 77 350 1.7 6.1 0.00 0.12 0.00 52 1012.0
20260510201804 77 187 0.9 2.6 0.00 0.12 0.00 52 1012.1
20260510201305 77 323 1.7 6.1 0.00 0.12 0.00 51 1012.0
20260510200805 77 325 1.7 6.1 0.00 0.12 0.00 52 1012.1
20260510200304 77 286 1.7 2.6 0.00 0.12 0.00 50 1012.1
20260510195805 78 270 0.9 2.6 0.00 0.12 0.00 53 1012.1
20260510194804 77 303 0.9 2.6 0.00 0.12 0.00 54 1012.2
20260510194303 77 317 2.6 7.8 0.00 0.12 0.00 54 1012.2
20260510193804 77 339 0.9 2.6 0.00 0.12 0.00 55 1012.2
20260510193304 77 318 1.7 4.3 0.00 0.12 0.00 52 1012.2
20260510192804 76 294 1.7 2.6 0.00 0.12 0.00 54 1012.3
20260510191804 77 334 1.7 4.3 0.00 0.12 0.00 53 1012.3
20260510191304 77 316 1.7 4.3 0.00 0.12 0.00 53 1012.5
20260510190805 78 325 1.7 7.8 0.00 0.12 0.00 53 1012.6
20260510190304 78 312 1.7 4.3 0.00 0.12 0.00 51 1012.5
20260510185805 79 336 0.9 5.2 0.00 0.12 0.00 52 1012.4
20260510185306 79 336 1.7 5.2 0.00 0.12 0.00 49 1012.6
20260510184804 79 283 0.9 2.6 0.00 0.12 0.00 49 1012.6
20260510184305 79 238 0.9 5.2 0.00 0.12 0.00 52 1012.6
20260510183804 78 309 1.7 5.2 0.00 0.12 0.00 54 1012.7
20260510183304 76 193 0.9 2.6 0.00 0.12 0.00 53 1012.6
20260510182804 76 267 0.9 5.2 0.00 0.12 0.00 52 1012.7
20260510182306 76 287 0.9 4.3 0.00 0.12 0.00 52 1012.6
20260510181305 77 296 1.7 2.6 0.00 0.12 0.00 50 1012.7
20260510180804 78 314 0.9 2.6 0.00 0.12 0.00 53 1012.6
20260510180304 78 293 0.0 2.6 0.00 0.12 0.00 50 1012.7
20260510175805 79 325 1.7 4.3 0.00 0.12 0.00 50 1012.7
20260510175306 79 319 1.7 4.3 0.00 0.12 0.00 53 1012.6
20260510174804 78 128 1.7 2.6 0.00 0.12 0.00 57 1012.7
20260510174304 78 282 1.7 2.6 0.00 0.12 0.00 52 1012.7
20260510173304 78 332 1.7 2.6 0.00 0.12 0.00 52 1012.6
20260510172805 77 313 0.9 4.3 0.00 0.12 0.00 55 1012.7
20260510171803 77 283 2.6 5.2 0.00 0.12 0.00 56 1012.7
20260510171306 77 203 0.9 5.2 0.00 0.12 0.00 58 1012.7
20260510170805 76 273 0.9 2.6 0.00 0.12 0.00 57 1012.8
20260510165306 75 179 0.0 2.6 0.00 0.12 0.00 62 1012.8
20260510164304 74 212 0.0 1.7 0.00 0.12 0.00 71 1012.9
20260510163804 73 183 0.9 2.6 0.00 0.12 0.00 65 1012.9
20260510163304 73 331 1.7 4.3 0.00 0.12 0.00 66 1013.0
20260510162804 73 328 1.7 5.2 0.00 0.12 0.00 64 1013.0
20260510162306 73 226 0.0 2.6 0.00 0.12 0.00 67 1013.0
20260510161804 72 315 0.9 2.6 0.00 0.12 0.00 68 1013.0
20260510161303 72 314 1.7 4.3 0.00 0.12 0.00 67 1013.0
20260510160805 71 91 0.9 2.6 0.00 0.12 0.00 71 1013.0
20260510160305 70 282 0.9 2.6 0.00 0.12 0.00 70 1013.1
20260510155804 70 309 0.9 2.6 0.00 0.12 0.00 70 1013.1
20260510155306 71 325 1.7 4.3 0.00 0.12 0.00 70 1013.2
20260510154804 71 236 0.9 2.6 0.00 0.12 0.00 75 1013.3
20260510153304 68 238 0.9 2.6 0.00 0.12 0.00 75 1013.4
20260510152804 68 179 1.7 4.3 0.00 0.12 0.00 79 1013.4
20260510152307 67 168 0.9 2.6 0.00 0.12 0.00 81 1013.5
20260510151804 66 249 1.7 2.6 0.00 0.12 0.00 82 1013.5
20260510151304 65 246 0.9 1.7 0.00 0.12 0.00 84 1013.5
20260510150804 65 259 0.9 2.6 0.00 0.12 0.00 85 1013.5
20260510145804 63 69 1.7 2.6 0.00 0.12 0.00 86 1013.5
20260510145306 62 186 0.9 2.6 0.00 0.12 0.00 86 1013.5
20260510144805 61 155 0.9 2.6 0.00 0.12 0.00 87 1013.5
20260510144304 60 319 0.9 2.6 0.00 0.12 0.00 87 1013.5
20260510143804 60 272 1.7 2.6 0.00 0.12 0.00 87 1013.5
20260510143304 59 274 0.9 1.7 0.00 0.12 0.00 88 1013.5
20260510142803 59 265 0.9 1.7 0.00 0.12 0.00 88 1013.7
20260510141804 59 170 0.9 2.6 0.00 0.12 0.00 88 1013.6
20260510141304 58 202 0.0 1.7 0.00 0.12 0.00 88 1013.6
20260510140804 57 214 0.0 2.6 0.00 0.12 0.00 88 1013.5
20260510140304 57 250 0.0 1.7 0.00 0.12 0.00 88 1013.6
20260510135805 57 250 0.0 0.9 0.00 0.12 0.00 88 1013.6
20260510135306 56 256 0.9 1.7 0.00 0.12 0.00 88 1013.5
20260510134305 56 323 0.0 1.7 0.00 0.12 0.00 88 1013.5
20260510133305 56 325 0.0 0.9 0.00 0.12 0.00 88 1013.4
20260510132804 56 325 0.0 0.0 0.00 0.12 0.00 88 1013.4
20260510132306 55 325 0.0 0.9 0.00 0.12 0.00 89 1013.6
20260510131804 55 325 0.0 0.9 0.00 0.12 0.00 88 1013.6
20260510131304 55 324 0.0 0.9 0.00 0.12 0.00 89 1013.6
20260510130805 55 324 0.0 0.9 0.00 0.12 0.00 89 1013.5
20260510130304 55 325 0.9 2.6 0.00 0.12 0.00 89 1013.6
20260510125804 54 149 0.0 0.9 0.00 0.12 0.00 88 1013.5
20260510125306 54 148 0.0 0.9 0.00 0.12 0.00 89 1013.3
20260510124305 54 148 0.0 0.9 0.00 0.12 0.00 89 1013.2
20260510123804 54 148 0.0 0.9 0.00 0.12 0.00 89 1013.2
20260510123304 54 148 0.0 0.9 0.00 0.12 0.00 89 1013.1
20260510122804 54 149 0.9 1.7 0.00 0.12 0.00 89 1012.9
20260510122306 54 355 0.0 0.9 0.00 0.12 0.00 89 1012.9
20260510121304 54 175 0.0 1.7 0.00 0.12 0.00 89 1013.1
20260510120804 54 250 0.0 1.7 0.00 0.12 0.00 89 1013.1
20260510120304 53 280 0.0 0.9 0.00 0.12 0.00 89 1013.1
20260510115804 53 280 0.0 0.9 0.00 0.12 0.00 89 1013.0
20260510115306 53 280 0.9 1.7 0.00 0.12 0.00 89 1012.9
20260510114804 53 280 0.0 0.9 0.00 0.12 0.00 89 1012.7
20260510114304 53 280 0.0 0.9 0.00 0.12 0.00 89 1012.8
20260510113805 53 280 0.0 0.9 0.00 0.12 0.00 89 1012.7
20260510113304 53 280 0.0 0.9 0.00 0.12 0.00 89 1012.6
20260510112804 52 280 0.0 0.0 0.00 0.12 0.00 89 1012.6
20260510112306 52 280 0.0 0.9 0.00 0.12 0.00 89 1012.7
20260510111805 52 280 0.0 0.9 0.00 0.12 0.00 89 1012.6
20260510111304 52 280 0.0 0.9 0.00 0.12 0.00 89 1012.6
20260510110805 52 280 0.0 0.9 0.00 0.12 0.00 89 1012.5
20260510110304 52 279 0.0 0.9 0.00 0.12 0.00 89 1012.4
20260510105804 52 279 0.0 0.0 0.00 0.12 0.00 89 1012.3
20260510105306 51 279 0.0 0.0 0.00 0.12 0.00 89 1012.3
20260510104805 51 279 0.0 0.0 0.00 0.12 0.00 89 1012.3
20260510103804 51 279 0.0 0.0 0.00 0.12 0.00 89 1012.2
20260510103305 51 279 0.0 1.7 0.00 0.12 0.00 89 1012.3
20260510101805 51 279 0.0 0.9 0.00 0.12 0.00 89 1011.9
20260510101305 51 279 0.0 0.9 0.00 0.12 0.00 89 1012.0
20260510100804 51 279 0.0 0.9 0.00 0.12 0.00 89 1012.0
20260510095804 50 280 0.0 0.0 0.00 0.12 0.00 89 1012.0
20260510094804 50 280 0.0 0.9 0.00 0.12 0.00 89 1012.0
20260510094304 50 280 0.0 0.9 0.00 0.12 0.00 89 1012.0
20260510093805 50 279 0.0 2.6 0.00 0.12 0.00 89 1012.0
20260510093304 50 301 0.0 1.7 0.00 0.12 0.00 89 1011.9
20260510092804 50 302 0.0 0.9 0.00 0.12 0.00 89 1012.0
20260510092306 50 302 0.0 0.9 0.00 0.12 0.00 89 1011.9
20260510090804 50 300 0.0 1.7 0.00 0.12 0.00 89 1011.7
20260510090304 49 300 0.9 2.6 0.00 0.12 0.00 89 1011.7
20260510085804 49 309 0.9 1.7 0.00 0.12 0.00 89 1011.9
20260510085306 49 311 0.9 4.3 0.00 0.12 0.00 89 1011.7
20260510084804 49 19 0.9 2.6 0.00 0.12 0.00 89 1011.5
20260510084305 49 311 1.7 2.6 0.00 0.12 0.00 89 1011.5
20260510083804 49 311 0.0 0.0 0.00 0.12 0.00 89 1011.2
20260510083304 49 311 0.0 0.0 0.00 0.12 0.00 89 1011.2
20260510082804 49 311 0.0 0.0 0.00 0.12 0.00 89 1011.2
20260510081806 50 311 0.0 0.0 0.00 0.12 0.00 89 1011.2
20260510081304 50 311 0.0 0.0 0.00 0.12 0.00 89 1011.2
20260510080805 50 311 0.0 0.0 0.00 0.12 0.00 89 1011.2
20260510080304 50 311 0.0 0.0 0.00 0.12 0.00 89 1011.2
20260510075306 50 311 0.0 0.0 0.00 0.12 0.00 89 1011.2
20260510074805 50 311 0.0 0.0 0.00 0.12 0.00 89 1011.2
20260510074305 50 311 0.0 0.0 0.00 0.12 0.00 89 1011.2
20260510073304 50 311 0.0 0.0 0.00 0.12 0.00 88 1011.1
20260510072804 50 311 0.0 0.0 0.00 0.12 0.00 88 1011.1
20260510072306 50 311 0.0 0.0 0.00 0.12 0.00 88 1011.0
20260510071804 50 311 0.0 0.0 0.00 0.12 0.00 88 1010.9
20260510071304 50 311 0.0 0.9 0.00 0.12 0.00 88 1010.9
20260510070804 50 311 0.0 1.7 0.00 0.12 0.00 88 1011.0
20260510070304 50 317 0.9 2.6 0.00 0.12 0.00 89 1010.9
20260510065804 51 331 0.0 2.6 0.00 0.12 0.00 88 1010.7
20260510065306 51 40 0.0 0.0 0.00 0.12 0.00 88 1010.6
20260510064804 51 40 0.0 0.0 0.00 0.12 0.00 88 1010.5
20260510064304 51 40 0.0 0.0 0.00 0.12 0.00 88 1010.4
20260510063804 51 40 0.0 0.0 0.00 0.12 0.00 88 1010.5
20260510063304 51 40 0.0 0.0 0.00 0.12 0.00 88 1010.5
20260510062804 51 40 0.0 0.0 0.00 0.12 0.00 88 1010.5
20260510062306 51 40 0.0 0.0 0.00 0.12 0.00 88 1010.6
20260510061304 51 40 0.0 0.0 0.00 0.12 0.00 89 1010.7
20260510060805 50 40 0.0 0.0 0.00 0.12 0.00 88 1010.7
20260510060304 50 40 0.0 0.0 0.00 0.12 0.00 88 1010.8
20260510055804 50 40 0.0 0.0 0.00 0.12 0.00 88 1010.8
20260510055306 50 40 0.0 0.0 0.00 0.12 0.00 88 1010.9
20260510054805 50 40 0.0 0.0 0.00 0.12 0.00 88 1010.9
20260510054305 50 40 0.0 0.0 0.00 0.12 0.00 88 1010.9
20260510053804 50 40 0.0 0.0 0.00 0.12 0.00 88 1010.9
20260510053304 50 40 0.0 0.0 0.00 0.12 0.00 88 1011.0
20260510052804 50 40 0.0 0.0 0.00 0.12 0.00 88 1011.0
20260510051803 50 40 0.0 0.0 0.00 0.12 0.00 88 1011.0
20260510051303 50 40 0.0 0.0 0.00 0.12 0.00 88 1011.0
20260510050804 50 40 0.0 0.0 0.00 0.12 0.00 88 1011.0
20260510050304 50 40 0.0 0.0 0.00 0.12 0.00 88 1011.1
20260510045804 50 40 0.0 0.0 0.00 0.12 0.00 88 1011.1
20260510045306 50 40 0.0 0.0 0.00 0.12 0.00 88 1011.1
20260510044804 50 40 0.0 0.0 0.00 0.12 0.00 88 1011.2
20260510044304 50 40 0.0 0.0 0.00 0.12 0.00 88 1011.2
20260510042804 50 40 0.0 0.0 0.00 0.12 0.00 88 1011.3
20260510042306 49 40 0.0 0.0 0.00 0.12 0.00 88 1011.3
20260510041804 49 40 0.0 0.0 0.00 0.12 0.00 88 1011.3
20260510041304 49 40 0.0 0.0 0.00 0.12 0.00 88 1011.4
20260510040904 49 40 0.0 0.0 0.00 0.12 0.00 88 1011.3
20260510040304 50 40 0.0 0.0 0.00 0.12 0.00 88 1011.3
20260510035804 50 40 0.0 0.0 0.00 0.12 0.12 88 1011.3
20260510035306 50 40 0.0 0.0 0.00 0.12 0.12 88 1011.2
20260510034804 50 40 0.0 0.0 0.00 0.12 0.12 88 1011.1
20260510033804 50 40 0.0 0.0 0.00 0.12 0.12 88 1011.1
20260510033304 50 40 0.0 0.0 0.00 0.12 0.12 88 1011.1
20260510032806 50 40 0.0 0.0 0.00 0.12 0.12 88 1011.0
20260510032306 50 40 0.0 0.0 0.00 0.12 0.12 88 1010.9
20260510031804 50 40 0.0 0.0 0.00 0.12 0.12 88 1010.9
20260510030804 50 40 0.0 0.0 0.00 0.12 0.12 88 1010.9
20260510030304 50 40 0.0 0.0 0.00 0.12 0.12 88 1010.9
20260510025806 50 40 0.0 0.0 0.00 0.12 0.12 88 1010.9
20260510025306 51 40 0.0 0.0 0.00 0.12 0.12 88 1010.9
20260510024805 51 40 0.0 0.0 0.00 0.12 0.12 88 1010.9
20260510023804 51 40 0.0 0.0 0.00 0.12 0.12 88 1010.8
20260510023304 51 40 0.0 0.0 0.00 0.12 0.12 88 1010.8
20260510022806 51 40 0.0 0.0 0.00 0.12 0.12 88 1010.8
20260510022306 51 40 0.0 0.0 0.00 0.12 0.12 87 1010.8
20260510021806 51 40 0.0 0.0 0.00 0.12 0.12 87 1010.7
20260510021304 51 40 0.0 0.0 0.00 0.12 0.12 88 1010.7
20260510020804 52 40 0.0 0.0 0.00 0.12 0.12 88 1010.7
20260510015804 52 40 0.0 0.0 0.00 0.12 0.12 87 1010.6
20260510015306 52 40 0.0 0.0 0.00 0.12 0.12 87 1010.7
20260510014804 52 40 0.0 0.0 0.00 0.12 0.12 87 1010.7
20260510013804 52 40 0.0 0.0 0.00 0.12 0.12 87 1010.8
20260510012306 53 40 0.0 0.0 0.00 0.12 0.12 87 1010.8
20260510011804 53 40 0.0 0.0 0.00 0.12 0.12 87 1010.8
20260510011305 53 40 0.0 0.0 0.00 0.12 0.12 87 1010.6
20260510010804 53 40 0.0 0.0 0.00 0.12 0.12 87 1010.5
20260510010304 53 40 0.0 0.0 0.00 0.12 0.12 87 1010.5
20260510005306 54 40 0.0 0.0 0.00 0.12 0.12 87 1010.3
20260510004804 54 40 0.0 0.0 0.00 0.12 0.12 87 1010.4
20260510004304 54 40 0.0 0.0 0.00 0.12 0.12 87 1010.4
20260510003804 54 40 0.0 0.0 0.00 0.12 0.12 86 1010.4
20260510003304 55 40 0.0 0.0 0.00 0.12 0.12 86 1010.3
20260510002804 55 40 0.0 0.0 0.00 0.12 0.12 86 1010.3
20260510002306 55 40 0.0 0.0 0.00 0.12 0.12 86 1010.2
20260510001804 55 40 0.0 0.0 0.00 0.12 0.12 86 1010.3
20260510000804 56 40 0.0 0.0 0.00 0.12 0.12 86 1010.2
20260510000305 56 40 0.0 0.0 0.00 0.12 0.12 86 1010.3
20260509235804 56 40 0.0 0.0 0.00 0.12 0.12 86 1010.3
20260509235306 57 40 0.0 0.0 0.00 0.12 0.12 86 1010.3
20260509234804 57 40 0.0 0.0 0.00 0.12 0.12 86 1010.2
20260509234304 57 40 0.0 0.0 0.00 0.12 0.12 86 1010.3
20260509233806 57 40 0.0 0.0 0.00 0.12 0.12 86 1010.3
20260509233305 57 40 0.0 0.0 0.00 0.12 0.12 86 1010.2
20260509232804 58 40 0.0 0.9 0.00 0.12 0.12 86 1010.1
20260509232306 58 40 0.0 0.0 0.00 0.12 0.12 86 1010.1
20260509231305 58 40 0.0 0.9 0.00 0.12 0.12 86 1010.0
20260509230804 58 40 0.0 1.7 0.00 0.12 0.12 87 1010.1
20260509230303 58 67 0.0 1.7 0.00 0.12 0.12 87 1010.0
20260509225805 58 98 0.0 1.7 0.00 0.12 0.12 87 1010.0
20260509225306 58 123 0.0 0.9 0.00 0.12 0.12 86 1010.0
20260509224805 58 123 0.0 0.9 0.00 0.12 0.12 86 1009.9
20260509223304 58 149 0.0 2.6 0.00 0.12 0.12 86 1010.0
20260509222804 58 169 0.0 0.9 0.02 0.12 0.12 86 1010.1
20260509222307 58 20 0.0 1.7 0.05 0.12 0.12 86 1010.1
20260509221804 58 17 0.0 0.0 0.08 0.12 0.12 86 1010.2
20260509220805 59 13 0.0 1.7 0.12 0.12 0.12 85 1010.4
20260509215804 59 309 0.0 0.9 0.12 0.12 0.12 86 1010.3
20260509215306 59 309 0.0 0.9 0.12 0.12 0.12 85 1010.5
20260509214804 59 309 0.0 0.0 0.12 0.12 0.12 85 1010.6
20260509214304 59 309 0.0 0.0 0.12 0.12 0.12 84 1010.8
20260509213804 59 309 0.0 0.0 0.12 0.12 0.12 83 1010.8
20260509213304 59 309 0.0 0.9 0.12 0.12 0.12 83 1010.8
20260509212804 60 309 0.0 1.7 0.10 0.10 0.10 82 1010.7
20260509212306 60 309 0.0 0.9 0.07 0.07 0.07 81 1010.6
20260509211804 60 309 0.0 0.9 0.04 0.04 0.04 79 1010.9
20260509211305 60 309 0.0 0.9 0.00 0.00 0.00 78 1011.0
20260509210804 60 309 0.0 0.0 0.00 0.00 0.00 78 1010.6
20260509210304 60 309 0.0 1.7 0.00 0.00 0.00 77 1010.6
20260509205804 60 311 0.0 1.7 0.00 0.00 0.00 77 1010.6
20260509205307 61 310 0.9 2.6 0.00 0.00 0.00 77 1010.5